North Bend, OR

6:46 AM PST on December 04, 2016 (GMT -0800)
North Bend Municipal

Weather History for KOTH - October, 2013

Change the Weather History Date:

Wednesday, October 9, 2013

  Actual Average Record
Temperature  
Mean Temperature 52 °F 54 °F  
Max Temperature 61 °F 62 °F 85 °F (1907)
Min Temperature 43 °F 47 °F 32 °F (1919)
Degree Days  
Heating Degree Days 13 11  
Month to date heating degree days 79 92  
Since 1 July heating degree days 365 700  
Cooling Degree Days 0 0  
Month to date cooling degree days 0 0  
Year to date cooling degree days 13 2  
Growing Degree Days 1 (Base 50)    
Moisture  
Dew Point 47 °F    
Average Humidity 87    
Maximum Humidity 100    
Minimum Humidity 64    
Precipitation  
Precipitation 0.00 in 0.11 in 3.99 in (1955)
Month to date precipitation 0.73 0.84  
Year to date precipitation 24.61 39.66  
Sea Level Pressure  
Sea Level Pressure 30.02 in    
Wind  
Wind Speed 6 mph (NNE)    
Max Wind Speed 16 mph    
Max Gust Speed 23 mph    
Visibility 8 miles    
Events      
T = Trace of Precipitation, MM = Missing Value Source: NWS Daily Summary

Daily Weather History Graph

Daily Weather History Graph

Search for Another Location

Airport or City:

Trip Planner

Search our weather history database for the weather conditions in past years. The results will help you decide how hot, cold, wet, or windy it might be!

Date:

Astronomy

Oct. 09, 2013 Rise Set
Actual Time 7:24 AM PDT 6:43 PM PDT
Civil Twilight 6:55 AM PDT 7:11 PM PDT
Nautical Twilight 6:22 AM PDT 7:44 PM PDT
Astronomical Twilight 5:49 AM PDT 8:18 PM PDT
Moon 12:32 PM PDT (10/9) 10:16 PM PDT (10/9)
Length of Visible Light 12h 16m
Length of Day
11h 19m
Waxing Crescent, 26% of the Moon is Illuminated
Oct 9
Waxing Crescent
Oct 11
First Quarter
Oct 18
Full
Oct 26
Last Quarter
Nov 3
New

Hourly Weather History & Observations

Time (PDT) Temp. Windchill Dew Point Humidity Pressure Visibility Wind Dir Wind Speed Gust Speed Precip Events Conditions
12:15 AM 50.0 °F - 48.2 °F 94% 30.04 in 10.0 mi Calm Calm - N/A   Overcast
12:35 AM 48.2 °F - 48.2 °F 100% 30.04 in 10.0 mi Calm Calm - 0.01 in   Overcast
12:55 AM 48.2 °F - 46.4 °F 93% 30.03 in 10.0 mi SE 4.6 mph - 0.01 in   Overcast
1:15 AM 48.2 °F - 48.2 °F 100% 30.03 in 10.0 mi ESE 4.6 mph - N/A   Partly Cloudy
1:35 AM 46.4 °F - 46.4 °F 100% 30.03 in 10.0 mi Calm Calm - N/A   Partly Cloudy
1:55 AM 46.4 °F - 46.4 °F 100% 30.03 in 9.0 mi Calm Calm - N/A   Partly Cloudy
2:15 AM 44.6 °F - 44.6 °F 100% 30.03 in 0.8 mi Calm Calm - N/A   Mostly Cloudy
2:35 AM 46.4 °F 44.3 °F 46.4 °F 100% 30.03 in 4.0 mi NNE 4.6 mph - N/A   Scattered Clouds
2:55 AM 46.4 °F 44.3 °F 46.4 °F 100% 30.03 in 8.0 mi NE 4.6 mph - N/A   Partly Cloudy
3:15 AM 44.6 °F 42.2 °F 42.8 °F 93% 30.03 in 0.2 mi SSE 4.6 mph - N/A   Overcast
3:35 AM 44.6 °F - 44.6 °F 100% 30.03 in 0.5 mi Calm Calm - N/A   Overcast
3:55 AM 44.6 °F - 44.6 °F 100% 30.03 in 0.5 mi Calm Calm - N/A   Overcast
4:15 AM 44.6 °F - 44.6 °F 100% 30.03 in 0.5 mi Calm Calm - N/A   Overcast
4:35 AM 44.6 °F - 44.6 °F 100% 30.03 in 9.0 mi Calm Calm - N/A   Overcast
4:55 AM 44.6 °F 41.4 °F 44.6 °F 100% 30.03 in 2.0 mi SE 5.8 mph - N/A   Mostly Cloudy
5:15 AM 44.6 °F 42.2 °F 44.6 °F 100% 30.03 in 0.5 mi SE 4.6 mph - N/A   Overcast
5:35 AM 44.6 °F 42.2 °F 44.6 °F 100% 30.03 in 0.5 mi ESE 4.6 mph - N/A   Overcast
5:55 AM 44.6 °F - 44.6 °F 100% 30.03 in 0.5 mi Calm Calm - N/A   Overcast
6:15 AM 42.8 °F 41.1 °F 42.8 °F 100% 30.03 in 0.5 mi SE 3.5 mph - N/A   Overcast
6:35 AM 44.6 °F 42.2 °F 42.8 °F 93% 30.03 in 0.5 mi SE 4.6 mph - N/A   Overcast
6:55 AM 44.6 °F - 44.6 °F 100% 30.04 in 0.8 mi Calm Calm - N/A   Overcast
7:15 AM 42.8 °F - 42.8 °F 100% 30.04 in 1.2 mi Calm Calm - N/A   Overcast
7:35 AM 44.6 °F - 42.8 °F 93% 30.04 in 0.2 mi Calm Calm - N/A   Overcast
7:55 AM 44.6 °F - 42.8 °F 93% 30.05 in 0.2 mi Calm Calm - N/A   Overcast
8:15 AM 42.8 °F - 42.8 °F 100% 30.05 in 0.2 mi Calm Calm - N/A   Overcast
8:35 AM 44.6 °F 42.2 °F 44.6 °F 100% 30.05 in 10.0 mi NE 4.6 mph - N/A   Partly Cloudy
8:55 AM 46.4 °F 45.2 °F 46.4 °F 100% 30.06 in 10.0 mi NNE 3.5 mph - N/A   Clear
9:15 AM 46.4 °F - 46.4 °F 100% 30.06 in 10.0 mi Calm Calm - N/A   Clear
9:35 AM 48.2 °F - 46.4 °F 93% 30.06 in 10.0 mi Calm Calm - N/A   Clear
9:55 AM 48.2 °F - 46.4 °F 93% 30.06 in 10.0 mi Calm Calm - N/A   Clear
10:15 AM 48.2 °F - 46.4 °F 93% 30.05 in 10.0 mi Calm Calm - N/A   Clear
10:35 AM 51.8 °F - 46.4 °F 82% 30.05 in 10.0 mi Calm Calm - N/A   Clear
10:55 AM 53.6 °F - 46.4 °F 77% 30.05 in 10.0 mi Calm Calm - N/A   Clear
11:15 AM 53.6 °F - 46.4 °F 77% 30.05 in 10.0 mi Calm Calm - N/A   Clear
11:35 AM 55.4 °F - 46.4 °F 72% 30.05 in 9.0 mi Calm Calm - N/A   Clear
11:55 AM 55.4 °F - 48.2 °F 77% 30.04 in 10.0 mi Calm Calm - N/A   Clear
12:15 PM 57.2 °F - 46.4 °F 67% 30.04 in 10.0 mi NNE 6.9 mph - N/A   Clear
12:35 PM 57.2 °F - 46.4 °F 67% 30.03 in 10.0 mi NE 9.2 mph - N/A   Clear
12:55 PM 57.2 °F - 48.2 °F 72% 30.02 in 10.0 mi North 11.5 mph - N/A   Clear
1:15 PM 57.2 °F - 48.2 °F 72% 30.01 in 10.0 mi North 12.7 mph 18.4 mph N/A   Clear
1:35 PM 57.2 °F - 48.2 °F 72% 30.01 in 10.0 mi North 11.5 mph - N/A   Clear
1:55 PM 60.8 °F - 48.2 °F 63% 30.01 in 10.0 mi North 10.4 mph - N/A   Clear
2:15 PM 60.8 °F - 50.0 °F 68% 30.01 in 10.0 mi North 11.5 mph - N/A   Partly Cloudy
2:35 PM 60.8 °F - 51.8 °F 72% 30.00 in 10.0 mi North 10.4 mph - N/A   Partly Cloudy
2:55 PM 60.8 °F - 50.0 °F 68% 30.00 in 10.0 mi North 12.7 mph - N/A   Scattered Clouds
3:15 PM 59.0 °F - 48.2 °F 67% 30.00 in 10.0 mi North 15.0 mph - N/A   Partly Cloudy
3:35 PM 59.0 °F - 50.0 °F 72% 30.00 in 10.0 mi North 16.1 mph 21.9 mph N/A   Clear
3:55 PM 60.8 °F - 50.0 °F 68% 30.00 in 10.0 mi North 12.7 mph - N/A   Clear
4:15 PM 60.8 °F - 50.0 °F 68% 30.00 in 10.0 mi North 15.0 mph - N/A   Clear
4:35 PM 59.0 °F - 51.8 °F 77% 30.00 in 10.0 mi North 17.3 mph 21.9 mph N/A   Clear
4:55 PM 59.0 °F - 48.2 °F 67% 30.00 in 10.0 mi North 16.1 mph 23.0 mph N/A   Clear
5:15 PM 57.2 °F - 51.8 °F 82% 30.00 in 10.0 mi North 18.4 mph 25.3 mph N/A   Clear
5:35 PM 57.2 °F - 51.8 °F 82% 30.00 in 10.0 mi North 17.3 mph 24.2 mph N/A   Clear
5:55 PM 57.2 °F - 51.8 °F 82% 29.99 in 10.0 mi North 16.1 mph 21.9 mph N/A   Clear
6:15 PM 57.2 °F - 51.8 °F 82% 29.99 in 10.0 mi North 15.0 mph - N/A   Clear
6:35 PM 55.4 °F - 51.8 °F 88% 29.99 in 10.0 mi North 9.2 mph - N/A   Clear
6:55 PM 55.4 °F - 50.0 °F 82% 30.00 in 10.0 mi North 6.9 mph - N/A   Clear
7:15 PM 55.4 °F - 48.2 °F 77% 30.00 in 10.0 mi NNE 11.5 mph - N/A   Clear
7:35 PM 55.4 °F - 48.2 °F 77% 30.00 in 10.0 mi North 9.2 mph - N/A   Clear
7:55 PM 55.4 °F - 48.2 °F 77% 30.00 in 10.0 mi North 10.4 mph - N/A   Clear
8:15 PM 55.4 °F - 48.2 °F 77% 30.00 in 10.0 mi North 10.4 mph - N/A   Clear
8:35 PM 53.6 °F - 50.0 °F 88% 30.00 in 10.0 mi NNE 8.1 mph - N/A   Clear
8:55 PM 53.6 °F - 50.0 °F 88% 30.01 in 10.0 mi NNE 6.9 mph - N/A   Clear
9:15 PM 51.8 °F - 50.0 °F 94% 30.00 in 10.0 mi NE 4.6 mph - N/A   Clear
9:35 PM 51.8 °F - 50.0 °F 94% 30.00 in 10.0 mi NNE 5.8 mph - N/A   Clear
9:55 PM 51.8 °F - 50.0 °F 94% 30.01 in 10.0 mi NNE 4.6 mph - N/A   Clear
10:15 PM 51.8 °F - 50.0 °F 94% 30.01 in 10.0 mi NNE 4.6 mph - N/A   Clear
10:35 PM 51.8 °F - 48.2 °F 88% 30.01 in 10.0 mi Calm Calm - N/A   Clear
10:55 PM 48.2 °F - 46.4 °F 93% 30.01 in 10.0 mi SE 3.5 mph - N/A   Clear
11:15 PM 50.0 °F - 48.2 °F 94% 30.01 in 10.0 mi Calm Calm - N/A   Clear
11:35 PM 48.2 °F - 46.4 °F 93% 30.01 in 10.0 mi Calm Calm - N/A   Clear
11:55 PM 48.2 °F - 46.4 °F 93% 30.00 in 10.0 mi SE 4.6 mph - N/A   Clear